This demonstration page uses our WeatherBlox Daily Observations layout. Learn more.

Left ArrowRight Arrow

Hourly Observations for November 10, 2018

Temp ( °F °C ) Dew Point ( °F °C ) Humidity (%) Winds ( mph kmh ) Pressure ( in mb ) Visibility ( mi km ) Precip ( " mm )
12:11 am 00:11 Cloudy with Light Snow 31 -0.6 28 -2.2 89 89 WNW 12 19 29.94 1014 3 4 0.00 0.03
12:28 am 00:28 Cloudy with Light Snow 32 0 28 -2 87 87 WNW 9 15 29.94 1014 4 6 0.00 0.00
12:53 am 00:53 Cloudy 32 0 29 -1.7 88 88 WNW 10 17 29.96 1015 10 16 0.00 0.03
1:05 am 01:05 Cloudy 33 0.6 30 -1.1 89 89 WNW 8 13 29.97 1015 10 16 0.00 0.00
1:50 am 01:50 Cloudy 34 1 30 -1 87 87 WNW 12 19 29.97 1015 10 16 0.00 0.00
1:53 am 01:53 Cloudy 34 1.1 31 -0.6 89 89 WNW 10 17 29.97 1015 10 16 0.00 0.00
2:09 am 02:09 Cloudy 34 1.1 31 -0.6 89 89 WNW 12 19 29.97 1015 10 16 0.00 0.00
2:23 am 02:23 Cloudy 34 1.1 31 -0.6 89 89 WNW 10 17 30.00 1016 10 16 0.00 0.00
2:30 am 02:30 Cloudy 34 1 30 -1 87 87 WNW 10 17 30.00 1016 10 16 0.00 0.00
2:38 am 02:38 Cloudy 34 1 30 -1 87 87 W 7 11 30.00 1016 10 16 0.00 0.00
2:53 am 02:53 Cloudy 34 1.1 32 0 92 92 W 7 11 29.98 1015 10 16 0.00 0.00
3:32 am 03:32 Cloudy 36 2 30 -1 81 81 WNW 13 20 30.00 1016 10 16 0.00 0.00
3:39 am 03:39 Cloudy 35 1.7 31 -0.6 85 85 WNW 12 19 30.00 1016 10 16 0.00 0.00
3:53 am 03:53 Cloudy 34 1.1 30 -1.1 85 85 WNW 13 20 29.99 1016 10 16 0.00 0.00
4:24 am 04:24 Cloudy 34 1 30 -1 87 87 W 8 13 30.03 1017 10 16 0.00 0.00
4:39 am 04:39 Cloudy 34 1.1 30 -1.1 85 85 WNW 10 17 30.03 1017 10 16 0.00 0.00
4:53 am 04:53 Mostly Cloudy 33 0.6 30 -1.1 89 89 WNW 14 22 30.02 1017 10 16 0.00 0.00
5:53 am 05:53 Cloudy 34 1.1 30 -1.1 85 85 W 10 17 30.04 1017 10 16 0.00 0.00
6:35 am 06:35 Cloudy 33 0.6 30 -1.1 89 89 W 10 17 30.12 1020 10 16 0.00 0.00
6:53 am 06:53 Cloudy 33 0.6 29 -1.7 85 85 W 9 15 30.06 1018 10 16 0.00 0.00
7:44 am 07:44 Cloudy 34 1 28 -2 81 81 W 8 13 30.09 1019 10 16 0.00 0.00
7:53 am 07:53 Cloudy 33 0.6 29 -1.7 85 85 W 9 15 30.09 1019 10 16 0.00 0.00
8:08 am 08:08 Cloudy 34 1 30 -1 87 87 W 9 15 30.15 1021 9 14 0.00 0.00
8:31 am 08:31 Cloudy with Light Snow 33 0.6 31 -0.6 92 92 W 9 15 30.15 1021 3 4 0.00 0.03
8:40 am 08:40 Cloudy with Light Snow 34 1 30 -1 87 87 WNW 10 17 30.15 1021 2 3 0.00 0.00
8:47 am 08:47 Cloudy with Light Snow 34 1 30 -1 87 87 W 13 20 30.15 1021 3 5 0.00 0.03
8:53 am 08:53 Cloudy with Light Snow 34 1.1 31 -0.6 89 89 WNW 13 20 30.11 1020 6 10 0.00 0.03
9:01 am 09:01 Cloudy 34 1.1 31 -0.6 89 89 WNW 15 24 30.12 1020 10 16 0.00 0.03
9:53 am 09:53 Cloudy 35 1.7 30 -1.1 82 82 W 14 22 30.13 1020 10 16 0.00 0.03
10:51 am 10:51 Cloudy with Light Snow 34 1 30 -1 87 87 WNW 16 26 30.15 1021 8 13 0.00 0.03
10:53 am 10:53 Cloudy with Light Snow 34 1.1 31 -0.6 89 89 WNW 17 28 30.14 1021 9 14 0.00 0.03
11:01 am 11:01 Cloudy 34 1.1 31 -0.6 89 89 WNW 16 26 30.18 1022 10 16 0.00 0.03
11:22 am 11:22 Cloudy with Light Snow 34 1 30 -1 87 87 WNW 18 30 30.18 1022 4 6 0.00 0.00
11:53 am 11:53 Cloudy 35 1.7 30 -1.1 82 82 NW 18 30 30.17 1022 9 14 0.00 0.03
12:21 pm 12:21 Cloudy 35 1.7 28 -2.2 76 76 NW 17 28 30.15 1021 10 16 0.00 0.00
12:53 pm 12:53 Cloudy 34 1.1 26 -3.3 73 73 NW 17 28 30.19 1022 10 16 0.00 0.00
1:19 pm 13:19 Cloudy 33 0.6 25 -3.9 72 72 NNW 24 39 30.21 1023 10 16 0.00 0.00
1:53 pm 13:53 Cloudy 34 1.1 24 -4.4 67 67 NW 18 30 30.21 1023 10 16 0.00 0.00
2:09 pm 14:09 Cloudy 33 0.6 24 -4.4 70 70 NW 17 28 30.24 1024 10 16 0.00 0.00
2:42 pm 14:42 Mostly Cloudy 34 1 25 -4 70 70 NW 18 30 30.24 1024 10 16 0.00 0.00
2:50 pm 14:50 Mostly Cloudy 34 1 25 -4 70 70 NNW 16 26 30.24 1024 10 16 0.00 0.00
2:53 pm 14:53 Mostly Cloudy 33 0.6 23 -5 66 66 NW 23 37 30.23 1024 10 16 0.00 0.00
3:53 pm 15:53 Mostly Sunny 33 0.6 21 -6.1 61 61 NW 16 26 30.25 1025 10 16 0.00 0.00
4:53 pm 16:53 Cloudy 31 -0.6 22 -5.6 69 69 WNW 10 17 30.28 1026 10 16 0.00 0.00
5:53 pm 17:53 Cloudy 30 -1.1 23 -5 75 75 W 8 13 30.29 1026 10 16 0.00 0.00
6:53 pm 18:53 Cloudy 29 -1.7 24 -4.4 82 82 SW 10 17 30.30 1026 10 16 0.00 0.00
7:53 pm 19:53 Cloudy 29 -1.7 24 -4.4 82 82 SW 7 11 30.31 1026 10 16 0.00 0.00
8:53 pm 20:53 Cloudy 29 -1.7 24 -4.4 82 82 W 6 9 30.30 1026 10 16 0.00 0.00
9:20 pm 21:20 Cloudy with Light Snow 30 -1 25 -4 80 80 W 8 13 30.33 1027 2 3 0.00 0.00
9:27 pm 21:27 Cloudy with Light Snow 28 -2 27 -3 93 93 W 9 15 30.33 1027 1 2 0.00 0.00
9:32 pm 21:32 Cloudy with Light Snow 28 -2 27 -3 93 93 W 8 13 30.33 1027 3 4 0.00 0.00
9:39 pm 21:39 Cloudy with Light Snow 29 -1.7 27 -2.8 92 92 W 8 13 30.33 1027 8 13 0.01 0.25
9:53 pm 21:53 Mostly Cloudy 27 -2.8 25 -3.9 92 92 W 7 11 30.31 1026 10 16 0.01 0.25
10:53 pm 22:53 Partly Cloudy 25 -3.9 23 -5 92 92 W 10 17 30.33 1027 10 16 0.00 0.00
11:53 pm 23:53 Mostly Clear 21 -6.1 19 -7.2 92 92 WSW 8 13 30.35 1028 10 16 0.00 0.00

Powered by AerisWeather